Weather History for Buffalo, WY

Change the Weather History Date:

Friday, March 29, 2013

  Actual Average Record
Temperature  
Mean Temperature 49 °F 38 °F  
Max Temperature 59 °F 49 °F 66 °F (2010)
Min Temperature 39 °F 26 °F 19 °F (2011)
Degree Days  
Heating Degree Days 16 27  
Month to date heating degree days 891 897  
Since 1 July heating degree days 5840 6137  
Cooling Degree Days 0 0  
Month to date cooling degree days 0 0  
Year to date cooling degree days 0 0  
Moisture  
Dew Point 27 °F    
Average Humidity 59    
Maximum Humidity 85    
Minimum Humidity 32    
Precipitation  
Precipitation T in 0.04 in 0.50 in (2007)
Month to date precipitation 0.08 0.84  
Year to date precipitation 0.69 1.61  
Sea Level Pressure  
Sea Level Pressure 30.03 in    
Wind  
Wind Speed 10 mph (NW)    
Max Wind Speed 25 mph    
Max Gust Speed 40 mph    
Visibility 10 miles    
Events      
T = Trace of Precipitation, MM = Missing Value Source: NWS Daily Summary

Daily Weather History Graph

Daily Weather History Graph

Search for Another Location

Airport:

Trip Planner

Search our weather history database for the weather conditions in past years. The results will help you decide how hot, cold, wet, or windy it might be!

Date:

Astronomy

Mar. 29, 2013 Rise Set
Actual Time 6:52 AM MDT 7:30 PM MDT
Civil Twilight 6:23 AM MDT 8:00 PM MDT
Nautical Twilight 5:49 AM MDT 8:34 PM MDT
Astronomical Twilight 5:13 AM MDT 9:10 PM MDT
Moon 10:42 PM MDT (3/29) 7:57 AM MDT (3/29)
Length of Visible Light 13h 36m
Length of Day
12h 38m
Waning Gibbous, 93% of the Moon is Illuminated
Mar 29
Waning Gibbous
Apr 2
Last Quarter
Apr 10
New
Apr 18
First Quarter
Apr 25
Full

Hourly Weather History & Observations

Time (MDT) Temp. Windchill Dew Point Humidity Pressure Visibility Wind Dir Wind Speed Gust Speed Precip Events Conditions
12:53 AM 43.0 °F 40.3 °F 21.0 °F 42% 30.02 in 10.0 mi WSW 4.6 mph - N/A   Clear
1:53 AM 42.1 °F 37.7 °F 21.9 °F 45% 30.00 in 10.0 mi WSW 6.9 mph - N/A   Mostly Cloudy
2:53 AM 44.1 °F - 19.9 °F 38% 29.99 in 10.0 mi Calm Calm - N/A   Clear
3:53 AM 44.1 °F 40.1 °F 21.0 °F 40% 29.98 in 10.0 mi SSW 6.9 mph - N/A   Partly Cloudy
4:53 AM 44.1 °F 42.5 °F 19.9 °F 38% 29.97 in 10.0 mi North 3.5 mph - N/A   Clear
5:53 AM 46.0 °F 43.1 °F 19.9 °F 35% 29.96 in 10.0 mi WSW 5.8 mph - N/A   Overcast
6:53 AM 42.1 °F 37.7 °F 23.0 °F 47% 29.99 in 10.0 mi West 6.9 mph - N/A   Partly Cloudy
7:53 AM 44.1 °F - 24.1 °F 45% 30.02 in 10.0 mi Calm Calm - N/A   Scattered Clouds
8:53 AM 48.0 °F - 23.0 °F 37% 30.04 in 10.0 mi NNW 11.5 mph - N/A   Partly Cloudy
9:53 AM 51.1 °F - 24.1 °F 35% 30.04 in 10.0 mi North 9.2 mph - N/A   Clear
10:53 AM 54.0 °F - 24.1 °F 31% 30.03 in 10.0 mi NNW 15.0 mph 24.2 mph N/A   Clear
11:53 AM 54.0 °F - 28.0 °F 37% 30.03 in 10.0 mi NNW 18.4 mph 27.6 mph N/A   Clear
12:53 PM 57.0 °F - 28.0 °F 33% 30.01 in 10.0 mi North 13.8 mph 25.3 mph N/A   Clear
1:53 PM 55.9 °F - 27.0 °F 33% 30.02 in 10.0 mi NNW 10.4 mph - N/A   Mostly Cloudy
2:53 PM 55.0 °F - 28.0 °F 35% 30.01 in 10.0 mi North 13.8 mph 24.2 mph N/A   Overcast
3:53 PM 54.0 °F - 33.1 °F 45% 30.03 in 10.0 mi North 11.5 mph 23.0 mph N/A   Overcast
4:53 PM 54.0 °F - 33.1 °F 45% 30.02 in 10.0 mi North 11.5 mph - N/A   Scattered Clouds
5:53 PM 52.0 °F - 32.0 °F 47% 30.03 in 10.0 mi NNW 6.9 mph - N/A   Mostly Cloudy
6:53 PM 51.1 °F - 32.0 °F 48% 30.04 in 10.0 mi NNW 5.8 mph - N/A   Clear
7:53 PM 43.0 °F 38.2 °F 30.9 °F 62% 30.06 in 10.0 mi WNW 8.1 mph - N/A   Clear
8:53 PM 44.1 °F 35.4 °F 34.0 °F 68% 30.09 in 10.0 mi NW 21.9 mph 29.9 mph N/A   Scattered Clouds
9:53 PM 43.0 °F 34.5 °F 36.0 °F 76% 30.11 in 10.0 mi NNW 19.6 mph 40.3 mph N/A   Overcast
10:53 PM 39.9 °F 33.9 °F 35.1 °F 83% 30.10 in 10.0 mi NW 9.2 mph - 0.00 in   Overcast
11:53 PM 43.0 °F 37.2 °F 34.0 °F 71% 30.08 in 10.0 mi WSW 10.4 mph - N/A   Overcast